Flag for Russia Weather past 2 weeks in Chelyabinsk, Russia

Now
37 °F

Sunny.


Feels Like: 33 °F
Forecast: 23 / 42 °F
Wind: 6 mph from Northwest

Location: Chelyabinsk-Balandino

Current Time: Mar 31, 2015 at 8:45:38 PM

Latest Report: Mar 31, 2015 at 8:00 PM


Visibility: 10 mi

Pressure: 30.39 "Hg

Humidity: 22%

Dew point: 1 °F

Location of ChelyabinskLocation

Historic Weather in Chelyabinsk — Graph

°F

Chelyabinsk temperature yesterday

Maximum temperature yesterday: 39 °F (at 2:00 PM)
Minimum temperature yesterday: 16 °F (at 4:00 AM)
Average temperature yesterday: 28 °F

Past Weeks' High & Low Weather Summary

 TemperatureHumidityPressure
High48 °F (Mar 18, 2:00 PM)93% (Mar 23, 5:30 PM)30.86 "Hg (Mar 23, 5:30 PM)
Low5 °F (Mar 29, 1:30 AM)10% (Mar 30, 2:30 PM)29.39 "Hg (Mar 23, 2:00 PM)
Average29 °F44%30.19 "Hg
* Reported Mar 16 7:00 PM — Mar 31 7:30 PM, Chelyabinsk, Weather by CustomWeather, © 2015

Note: Actual official high and low records may vary slightly from our data, if they occured in-between our weather recording intervals... More about our weather records

Advertising

Chelyabinsk weather history for previous 24 hours

 ConditionsComfort  
Time TempWeatherWind HumidityBarometerVisibility
7:30 PM
Tue, Mar 31
37 °FSunny.6 mph20%30.39 "Hg10 mi
7:00 PM41 °FSunny.6 mph17%30.36 "Hg10 mi
6:30 PM45 °FSunny.8 mph14%30.39 "Hg10 mi
6:00 PM46 °FSunny.10 mph12%30.39 "Hg10 mi
5:30 PM46 °FSunny.10 mph11%30.39 "Hg10 mi
5:00 PM46 °FSunny.10 mph11%30.39 "Hg10 mi
4:30 PM46 °FSunny.10 mph11%30.39 "Hg10 mi
4:00 PM46 °FSunny.13 mph11%30.42 "Hg10 mi
3:30 PM45 °FSunny.10 mph12%30.42 "Hg10 mi
3:00 PM45 °FSunny.13 mph13%30.42 "Hg10 mi
2:30 PM45 °FSunny.13 mph13%30.42 "Hg10 mi
2:00 PM43 °FSunny.15 mph12%30.42 "Hg10 mi
1:30 PM41 °FSunny.13 mph13%30.45 "Hg10 mi
1:00 PM41 °FSunny.13 mph13%30.45 "Hg10 mi
12:30 PM39 °FSunny.13 mph13%30.45 "Hg10 mi
12:00 PM39 °FSunny.13 mph14%30.48 "Hg10 mi
11:30 AM37 °FSunny.15 mph15%30.48 "Hg10 mi
11:00 AM36 °FSunny.17 mph18%30.48 "Hg10 mi
10:30 AM34 °FSunny.15 mph19%30.48 "Hg10 mi
10:00 AM32 °FSunny.13 mph25%30.48 "Hg10 mi
9:30 AM28 °FSunny.15 mph29%30.51 "Hg10 mi
9:00 AM28 °FSunny.17 mph29%30.51 "Hg10 mi
8:30 AM27 °FSunny.15 mph33%30.51 "Hg10 mi
7:30 AM21 °FClear.10 mph42%30.51 "Hg10 mi
7:00 AM21 °FClear.13 mph42%30.51 "Hg10 mi
6:30 AM21 °FClear.13 mph42%30.48 "Hg10 mi
6:00 AM21 °FClear.13 mph42%30.48 "Hg10 mi
5:30 AM21 °FClear.13 mph38%30.48 "Hg10 mi
4:30 AM23 °FClear.15 mph36%30.48 "Hg10 mi
4:00 AM23 °FClear.15 mph33%30.48 "Hg10 mi
3:30 AM25 °FClear.15 mph30%30.45 "Hg10 mi
3:00 AM25 °FClear.15 mph30%30.45 "Hg10 mi
2:30 AM25 °FClear.15 mph30%30.45 "Hg10 mi
2:00 AM25 °FClear.15 mph30%30.45 "Hg10 mi
1:30 AM27 °FClear.15 mph28%30.45 "Hg10 mi
1:00 AM27 °FClear.15 mph28%30.45 "Hg10 mi
12:30 AM25 °FClear.13 mph33%30.48 "Hg10 mi
12:00 AM27 °FClear.13 mph31%30.48 "Hg10 mi
11:30 PM
Mon, Mar 30
27 °FClear.13 mph31%30.48 "Hg10 mi
11:00 PM27 °FClear.13 mph28%30.48 "Hg10 mi
10:30 PM27 °FClear.13 mph31%30.51 "Hg10 mi
10:00 PM27 °FClear.13 mph33%30.51 "Hg10 mi
9:30 PM28 °FClear.13 mph31%30.51 "Hg10 mi
9:00 PM30 °FSunny.15 mph29%30.51 "Hg10 mi
8:30 PM30 °FSunny.15 mph31%30.51 "Hg10 mi
8:00 PM28 °FSunny.13 mph31%30.51 "Hg10 mi
Weather by CustomWeather, © 2015

See weather overviewHow to use our weather pages